[[{"header":{"parameterUnit":"m.s-1","parameterCategory":1,"la1":30.2992,"la2":30.254,"lo1":-89.0895,"lo2":-89.0443,"dy":0.0025,"dx":0.0025,"nx":19,"ny":19,"refTime":"2026-05-21T03:00:00:Z","depth":0,"parameterNumber":2,"parameterNumberName":"U-component_of_WINDS"},"data":[0,0,0,-1.4465,-1.447,-1.4696,-1.4697,-1.4957,-1.4959,0,0,0,0,0,0,0,0,0,0,0,-1.4377,-1.4378,-1.4465,-1.447,-1.4696,-1.4697,-1.4957,-1.4959,0,0,0,0,0,0,0,0,0,0,0,-1.4377,-1.4378,-1.4379,-1.4471,-1.4695,-1.4697,-1.4956,-1.4797,0,0,0,0,0,0,0,0,0,0,-1.4583,-1.448,-1.4378,-1.4379,-1.4472,-1.4695,-1.4697,-1.479,-1.4807,-1.4841,0,-1.4863,0,-1.4915,-1.4974,-1.4975,0,0,0,-1.4487,-1.4465,-1.4545,-1.4379,-1.4474,-1.4695,-1.4599,-1.48,-1.4819,-1.4864,-1.4867,-1.4877,-1.4919,-1.4976,-1.4977,-1.511,-1.511,0,0,-1.4475,-1.4407,-1.4531,-1.4556,-1.4515,-1.4591,-1.4605,-1.4812,-1.4812,-1.4868,-1.4884,-1.4923,-1.4977,-1.4979,-1.511,-1.511,0,0,0,-1.4427,-1.4398,-1.4473,-1.4545,-1.4587,-1.4597,-1.4614,-1.4803,-1.4833,-1.4887,-1.4926,-1.4979,-1.4982,-1.5111,-1.511,-1.5034,0,0,0,-1.4421,-1.437,-1.4467,-1.4428,-1.4583,-1.4697,-1.4599,-1.4819,-1.4844,-1.4925,-1.4979,-1.4984,-1.5111,-1.511,-1.5037,-1.5009,0,0,0,-1.437,-1.4365,-1.439,-1.4424,-1.4518,-1.4696,-1.4738,-1.4826,-1.4867,-1.4975,-1.4984,-1.5111,-1.511,-1.5039,-1.5014,-1.5024,0,0,0,-1.4297,-1.4321,-1.4387,-1.4429,-1.4516,-1.4645,-1.4737,-1.4839,-1.4922,-1.498,-1.5111,-1.511,-1.504,-1.5016,-1.5026,-1.5019,-1.501,0,0,-1.429,-1.4317,-1.4348,-1.4414,-1.4513,-1.4617,-1.4708,-1.485,-1.4924,-1.5045,-1.5049,-1.5036,-1.5014,-1.5024,-1.4985,-1.4977,0,0,0,-1.4322,-1.4343,-1.4384,-1.4459,-1.4566,-1.4656,-1.4791,-1.4845,-1.495,-1.4971,-1.5045,-1.5034,-1.5043,-1.5043,-1.5037,-1.5049,-1.5108,-1.5108,-1.5108,-1.4214,-1.4305,-1.4362,-1.4479,-1.4551,-1.469,-1.4758,-1.4854,-1.4927,-1.4943,-1.4979,-1.4943,-1.4941,-1.4936,-1.4948,-1.4984,-1.4984,-1.4983,-1.4983,-1.4211,-1.4254,-1.4349,-1.4437,-1.4534,-1.4611,-1.4747,-1.4797,-1.4884,-1.4924,-1.4937,-1.497,-1.4925,-1.494,-1.4978,-1.4979,-1.498,-1.498,-1.4981,-1.4149,-1.4185,-1.4248,-1.4365,-1.4446,-1.4568,-1.4647,-1.4734,-1.4818,-1.483,-1.4878,-1.4879,-1.4891,-1.4847,-1.4847,-1.4847,-1.4847,-1.4847,-1.4846,-1.4059,-1.4132,-1.4186,-1.4301,-1.4361,-1.4451,-1.4592,-1.4655,-1.4747,-1.4805,-1.4806,-1.4877,-1.4903,-1.4907,-1.4845,-1.4845,-1.4845,-1.4846,-1.4846,-1.4019,-1.4042,-1.4124,-1.4183,-1.4328,-1.4403,-1.4514,-1.4634,-1.47,-1.4736,-1.4806,-1.4811,-1.4847,-1.4853,-1.4856,-1.4786,-1.4786,-1.4786,-1.4786,-1.3966,-1.3992,-1.4096,-1.4185,-1.4284,-1.4392,-1.4486,-1.4597,-1.4717,-1.4763,-1.4787,-1.48,-1.4802,-1.4837,-1.4844,-1.4848,-1.4777,-1.4777,-1.4777,-1.3946,-1.3986,-1.4046,-1.4159,-1.4279,-1.4381,-1.4472,-1.4574,-1.4716,-1.4779,-1.4802,-1.4802,-1.4825,-1.4827,-1.4888,-1.4896,-1.4907,0,0]},{"header":{"parameterUnit":"m.s-1","parameterCategory":1,"la1":30.2992,"la2":30.254,"lo1":-89.0895,"lo2":-89.0443,"dy":0.0025,"dx":0.0025,"nx":19,"ny":19,"refTime":"2026-05-21T03:00:00:Z","depth":0,"parameterNumber":3,"parameterNumberName":"V-component_of_WINDS"},"data":[0,0,0,6.0993,6.0995,6.112,6.1121,6.1287,6.1288,0,0,0,0,0,0,0,0,0,0,0,6.0964,6.0965,6.0992,6.0996,6.112,6.1121,6.1287,6.1288,0,0,0,0,0,0,0,0,0,0,0,6.0963,6.0965,6.0966,6.0996,6.112,6.1121,6.1286,6.1189,0,0,0,0,0,0,0,0,0,0,6.1066,6.1048,6.0964,6.0967,6.0997,6.112,6.1121,6.1184,6.1195,6.1235,0,6.1275,0,6.1285,6.13,6.1301,0,0,0,6.0989,6.1039,6.1066,6.0967,6.0998,6.112,6.1062,6.119,6.1202,6.1249,6.1277,6.1283,6.1288,6.1302,6.1302,6.1562,6.1563,0,0,6.0982,6.0989,6.1058,6.1074,6.106,6.1058,6.1066,6.1197,6.1227,6.1278,6.1287,6.129,6.1303,6.1304,6.156,6.1562,0,0,0,6.0967,6.0985,6.1008,6.1068,6.109,6.1062,6.1071,6.1221,6.1229,6.1289,6.1292,6.1304,6.1306,6.1559,6.1561,6.1645,0,0,0,6.0962,6.0976,6.1006,6.1011,6.1088,6.1158,6.1092,6.1219,6.1234,6.1291,6.1304,6.1308,6.1557,6.156,6.1639,6.1684,0,0,0,6.0953,6.0975,6.0996,6.1011,6.1066,6.1156,6.117,6.1222,6.1237,6.1301,6.1308,6.1556,6.1559,6.1634,6.1675,6.1754,0,0,0,6.0943,6.1068,6.0997,6.1137,6.1065,6.1208,6.1169,6.1275,6.134,6.1305,6.1557,6.1561,6.1633,6.167,6.1749,6.1823,6.1855,0,0,6.1104,6.1088,6.1169,6.111,6.1268,6.1188,6.1358,6.1409,6.1406,6.1509,6.1515,6.1641,6.1674,6.1753,6.203,6.2055,0,0,0,6.1223,6.1281,6.1322,6.1386,6.143,6.147,6.1495,6.1513,6.1601,6.1462,6.1691,6.171,6.1756,6.1791,6.1813,6.1851,6.1577,6.1577,6.1577,6.1461,6.1453,6.1587,6.1594,6.1657,6.1681,6.173,6.1758,6.173,6.1785,6.1815,6.1984,6.2026,6.2042,6.2082,6.1854,6.1854,6.1854,6.1854,6.1696,6.1778,6.1739,6.1856,6.1845,6.1941,6.1968,6.1945,6.2031,6.1961,6.2001,6.1924,6.207,6.2105,6.1861,6.186,6.1859,6.1858,6.1858,6.1851,6.1889,6.1911,6.2003,6.2073,6.2074,6.2159,6.2146,6.2133,6.2173,6.2203,6.2202,6.2198,6.2188,6.2189,6.219,6.219,6.2191,6.2191,6.2004,6.2026,6.2102,6.2159,6.2197,6.2246,6.2271,6.2308,6.2345,6.2328,6.2328,6.2294,6.2086,6.2034,6.22,6.2198,6.2197,6.2196,6.2196,6.2246,6.2189,6.2306,6.2345,6.2409,6.2479,6.2461,6.2537,6.2565,6.2607,6.2564,6.2413,6.2394,6.2376,6.2333,6.2566,6.2566,6.2566,6.2566,6.2377,6.2367,6.2482,6.2546,6.2606,6.2601,6.2729,6.2748,6.2759,6.2775,6.2739,6.268,6.2663,6.2654,6.2631,6.259,6.2884,6.2884,6.2884,6.2525,6.252,6.2634,6.2646,6.2695,6.2736,6.2856,6.2927,6.2926,6.2897,6.2787,6.2774,6.2679,6.2649,6.2617,6.2581,6.2507,0,0]}]]